Regional Weather Roundup
Issued by NWS

Home | Current Version | Previous Version | Text Only | Print | Product List | Glossary On
Versions: 1 2 3 4 5 6 7 8 9 10 11 12 13 14 15 16 17 18 19 20 21 22 23 24 25 26 27 28 29 30 31 32 33 34 35 36 37 38 39 40 41 42 43 44 45 46 47 48 49 50
000
ASUS44 KFWD 292215
RWRTX
NORTH TEXAS HOURLY WEATHER ROUNDUP
NATIONAL WEATHER SERVICE FORT WORTH TX
500 PM CDT FRI AUG 29 2014

NOTE: "FAIR" INDICATES FEW OR NO CLOUDS BELOW 12,000 FEET WITH NO
SIGNIFICANT WEATHER AND/OR OBSTRUCTIONS TO VISIBILITY.

TXZ118-119-292300-
DALLAS/FORT WORTH METROPLEX

CITY           SKY/WX    TMP DP  RH WIND       PRES   REMARKS
DFW AIRPORT    MOSUNNY   93  66  40 VRB3      29.86R HX  96
DALLAS LOVE    MOSUNNY   92  66  42 W8        29.85R HX  94
FTW MEACHAM    MOSUNNY   93  63  36 W5        29.85F HX  94
DAL-EXECUTIVE  PTSUNNY   93  66  40 CALM      29.85S HX  96
FTW-ALLIANCE   MOSUNNY   90  65  43 W9        29.86S HX  92
FTW-NAS-JRB    MOSUNNY   95  61  32 NW7       29.89F HX  95
FTW-SPINKS     MOSUNNY   91  64  40 CALM      29.88S HX  93
ARLINGTON      SUNNY     93  65  39 W6        29.86S HX  95
GRAND PRAIRIE  SUNNY     91  63  38 S12       29.86S HX  92
ADDISON        MOSUNNY   91  64  40 W9        29.86S HX  93
MESQUITE       PTSUNNY   90  68  48 SE8       29.85F HX  93
LANCASTER      TSTM      72  64  76 N3G24     29.89R VSB 3/4
$$

TXZ091>094-102>105-117-120-121-131>134-292300-
NORTH CENTRAL TEXAS

CITY           SKY/WX    TMP DP  RH WIND       PRES   REMARKS
SHRMAN/DENISON MOSUNNY   89  63  41 CALM      29.88S
GAINESVILLE    MOSUNNY   85  67  56 CALM      29.90S
BOWIE          PTSUNNY   82  69  64 CALM      29.90S
BRIDGEPORT     PTSUNNY   84  63  49 N3        29.89F
DECATUR        PTSUNNY   84  65  53 CALM      29.89F
DENTON         MOSUNNY   88  63  43 SW3       29.86S
MCKINNEY       MOSUNNY   88  66  48 E5        29.86R HX  90
GREENVILLE     MOSUNNY   90  68  48 S6        29.87S HX  93
ROCKWALL       PTSUNNY   90  71  53 SE7       29.84F HX  96
TERRELL        SUNNY     92  70  48 S10       29.86F HX  97
WAXAHACHIE     CLOUDY    94  62  34 S5        29.87R HX  95
CLEBURNE       SUNNY     90  66  45 NW6       29.88S HX  92
GRANBURY       SUNNY     94  64  36 N5        29.86F HX  95
$$

TXZ083>090-098>101-113>116-127>130-139>142-154-155-292300-
WESTERN NORTH TEXAS

CITY           SKY/WX    TMP DP  RH WIND       PRES   REMARKS
WICHITA FALLS  MOSUNNY   84  68  58 S8        29.88F
WF-KICKAPOO    MOSUNNY   85  66  53 SW5       29.90S
VERNON         SUNNY     87  68  52 S7        29.89S HX  90
ABILENE        MOSUNNY   88  67  49 E16       29.89F HX  91
ABILENE-DYESS  MOSUNNY   89  71  54 E10       29.87F HX  94
BRECKENRIDGE   CLOUDY    75  69  79 SE6       29.90F HAZE
GRAHAM         CLOUDY    77  71  82 CALM      29.88F
MINERAL WELLS  PTSUNNY   86  68  54 NE6       29.86F
STEPHENVILLE   MOSUNNY   91  63  39 N7        29.91F HX  92
COMANCHE         N/A     89  64  42 NW21G26   29.90R HX  91
BROWNWOOD      MOSUNNY   91  64  40 N13G32    29.88S HX  93
COLEMAN        PTSUNNY   91  66  43 NE14      29.89S HX  94
BRADY          MOSUNNY   91  63  38 CALM      29.86S HX  92
$$

TXZ143>147-156>162-174-175-292300-
CENTRAL TEXAS

CITY           SKY/WX    TMP DP  RH WIND       PRES   REMARKS
WACO           MOSUNNY   95  67  39 E7        29.84S HX  99
WACO-TSTC      MOSUNNY   93  70  46 S12       29.84S HX  99
WACO-MCGREGOR  MOSUNNY   95  68  41 E8        29.84S HX  99
HILLSBORO      PTSUNNY   93  64  37 S3        29.85S HX  94
CORSICANA      PTSUNNY   91  69  48 SE9       29.87S HX  96
MEXIA          CLOUDY    87  71  58 SE6       29.85F HX  92
HEARNE           N/A     76  74  92 S8        29.87S
CAMERON        CLOUDY    76  72  86 SE9G24    29.86F
TEMPLE         MOSUNNY   90  68  48 SE28G33   29.85R HX  93
KILLEEN        PTSUNNY   95  66  38 VRB7      29.84S HX  98
KILLEEN-SKYLRK MOSUNNY   93  70  46 SE17G25   29.84S HX  99
FORT HOOD      PTSUNNY   95  66  38 NE9       29.84S HX  98
GATESVILLE     SUNNY     93  66  40 NE3       29.87S HAZE    HX  96
LAMPASAS       SUNNY     96  69  41 E6        29.85R HX 101
$$

TXZ095>097-106>112-122>126-135>138-148>153-164>167-292300-
EAST TEXAS

CITY           SKY/WX    TMP DP  RH WIND       PRES   REMARKS
PARIS          MOSUNNY   88  70  55 S12       29.88F HX  92
SULPHUR SPRNGS MOSUNNY   90  69  49 S5        29.89F HX  94
MOUNT PLEASANT MOSUNNY   88  70  55 E7        29.88F HX  92
GILMER         PTSUNNY   77  75  94 CALM      29.88F
MINEOLA        MOSUNNY   90  72  55 SW7       29.88S HX  96
TYLER          PTSUNNY   87  71  58 NE8       29.87F HX  93
LONGVIEW       PTSUNNY   94  65  38 S9        29.85F HX  96
MARSHALL       PTSUNNY   96  69  41 S10       29.88S HX 102
ATHENS         PTSUNNY   86  72  62 CALM      29.86S HX  92
PALESTINE      PTSUNNY   92  71  48 E8        29.86F HX  98
JACKSONVILLE   PTSUNNY   90  67  46 SE6       29.88F HX  94
HENDERSON      PTSUNNY   92  64  39 S5        29.87S HX  93
NACOGDOCHES    PTSUNNY   90  72  55 S10       29.87F HX  96
LUFKIN         PTSUNNY   90  72  55 SE9       29.87F HX  97
$$

SUPPLEMENTAL OBSERVATIONS (CENTRAL)

CITY           SKY/WX    TMP DP  RH WIND       PRES   REMARKS
LAKE TEXOMA      N/A     86  68  54 NW5         N/A
PAT MAYSE LAKE   N/A     84  70  61 SE12        N/A
GREENVILLE       N/A     90  70  51 S7          N/A  HX  95
CEDAR HILL       N/A     97  66  36 NW3         N/A  HX 100
PALESTINE        N/A     93  68  43 SE5         N/A  HX  97
LAKE LIMESTONE   N/A     86  73  66 NE1G12      N/A  HX  93
MCGREGOR         N/A     91  66  43 E8          N/A  HX  94
TEMPLE           N/A     79  68  69 S18G29      N/A
$$

SUPPLEMENTAL OBSERVATIONS (WEST)

CITY           SKY/WX    TMP DP  RH WIND       PRES   REMARKS
MILLERS CREEK    N/A     86  75  70 S5          N/A  HX  95
POSSUM KINGDOM   N/A     73  66  78 SW2         N/A
GRANBURY         N/A     93  63  36 NE7         N/A  HX  94
COMANCHE         N/A     79  61  53 N15G28      N/A
HAMBY            N/A     82  64  54 E15         N/A
COLORADO BEND    N/A     93  61  33 E8G17       N/A  HX  93
$$

SUPPLEMENTAL OBSERVATIONS (EAST)

CITY           SKY/WX    TMP DP  RH WIND       PRES   REMARKS
CLARKSVILLE      N/A     90  70  51 S9          N/A  HX  95
TEXARKANA        N/A     88  70  55 W5          N/A  HX  92
LINDEN           N/A     84  70  61 NW5         N/A
CADDO LAKE       N/A     97  64  34 S5          N/A  HX  99
GILMER           N/A     79  75  89 N2G17       N/A
HENDERSON        N/A     91  66  43 S6G14       N/A  HX  94
LUFKIN           N/A     88  73  62 MISG        N/A  HX  96
N SABINE NF      N/A     95  70  43 MISG        N/A  HX 101
$$

SUPPLEMENTAL OBSERVATIONS ARE A COLLECTION OF AUTOMATED INSTRUMENTS
THAT ARE MAINTAINED BY A VARIETY OF FEDERAL AND STATE AGENCIES.
CERTAIN ELEMENTS...SUCH AS HUMIDITY VALUES AND SUSTAINED WIND
SPEEDS...MAY BE APPROXIMATED.




USA.gov is the U.S. government's official web portal to all federal, state and local government web resources and services.